Location: Bottenau
(48.5138°N, 8.0462°E)
Time: 05:24:27
(UTC+00:00)

USA 229 DEB - Pass Details

Date: 18 April 2021
Orbit: 960 x 1252 km, 63.4° (Epoch: 23 April)

Event Time Altitude Azimuth Distance (km) Brightness Sun altitude
Rises 23:24:30 0° 316° (NW) 3,975 7.3 -30.3°
Reaches altitude 10° 23:27:13 10° 311° (NW) 3,053 6.5 -30.3°
Enters shadow 23:33:33 46° 254° (WSW) 1,559 4.3 -30.3°
